Tracking 33094 objects as of 25-Jan-2026
HD Live streaming from Space Station
objects crossing your sky now

THOR ABLESTAR DEB

Track THOR ABLESTAR DEB now!
10-day predictions


NORAD ID: 6747
Int'l Code: 1961-015KM
Perigee: 812.0 km
Apogee: 1,024.1 km
Inclination: 66.6 °
Period: 103.2 minutes
Semi major axis: 7289 km
RCS: 0.0083 m2 (small)
Launch date: June 29, 1961
Source: United States (US)
Launch site: AIR FORCE EASTERN TEST RANGE (AFETR)

Note: This is SATELLITE DEBRIS
Your satellite tracking list
Your tracking list is empty




NASA's NSSDC Master Catalog

Two Line Element Set (TLE):
1 06747U 61015KM  26022.35396144  .00000704  00000-0  53167-3 0  9990
2 06747  66.5996 147.9517 0145517 303.0904  55.6274 13.95080985271235
Source of the keplerian elements: AFSPC